• In Hungary
  • List of Countries
  • For 7 days
  • Water Temperature
  • Satellite Maps
  • Weather Map
  • News
  • Weather Widgets
  • user-avatar
    Login

    Hourly Weather Zhuravliha

    Today, 24 May, Thursday

    Time Temperature Precipitation Wind Pressure Humidity
    00:00 +20°C° 0 mm 2 mps 764 mmHg 56%
    01:00 +19°C° 0 mm 2 mps 763 mmHg 57%
    02:00 +19°C° 0 mm 2 mps 763 mmHg 59%
    03:00 +19°C° 0 mm 1 mps 763 mmHg 58%
    04:00 +20°C° 0 mm 1 mps 763 mmHg 58%
    05:00 +20°C° 0 mm 1 mps 763 mmHg 58%
    06:00 +21°C° 0 mm 1 mps 762 mmHg 58%
    07:00 +23°C° 0 mm 2 mps 762 mmHg 52%
    08:00 +25°C° 0 mm 2 mps 762 mmHg 47%
    09:00 +27°C° 0 mm 2 mps 762 mmHg 41%
    10:00 +29°C° 0 mm 2 mps 761 mmHg 38%
    11:00 +30°C° 0 mm 2 mps 761 mmHg 34%
    12:00 +31°C° 0 mm 2 mps 760 mmHg 31%
    13:00 +33°C° 0 mm 3 mps 760 mmHg 30%
    14:00 +33°C° 0 mm 3 mps 759 mmHg 28%
    15:00 +34°C° 0 mm 3 mps 759 mmHg 27%
    16:00 +33°C° 0 mm 3 mps 758 mmHg 31%
    17:00 +31°C° 0 mm 3 mps 758 mmHg 36%
    18:00 +30°C° 0 mm 2 mps 757 mmHg 40%
    19:00 +28°C° 0 mm 2 mps 757 mmHg 42%
    20:00 +26°C° 0 mm 3 mps 757 mmHg 45%
    21:00 +25°C° 0 mm 3 mps 757 mmHg 47%
    22:00 +24°C° 0 mm 3 mps 757 mmHg 48%
    23:00 +22°C° 0 mm 3 mps 756 mmHg 49%

    Tomorrow, 25 May, Friday

    Time Temperature Precipitation Wind Pressure Humidity
    00:00 +22°C° 0 mm 3 mps 756 mmHg 50%
    01:00 +21°C° 0 mm 3 mps 756 mmHg 51%
    02:00 +21°C° 0 mm 3 mps 756 mmHg 52%
    03:00 +20°C° 0 mm 3 mps 756 mmHg 53%
    04:00 +20°C° 0 mm 3 mps 756 mmHg 58%
    05:00 +20°C° 0 mm 4 mps 756 mmHg 62%
    06:00 +20°C° 0 mm 4 mps 756 mmHg 66%
    07:00 +21°C° 0 mm 5 mps 756 mmHg 66%
    08:00 +21°C° 0 mm 6 mps 756 mmHg 67%
    09:00 +22°C° 0 mm 7 mps 756 mmHg 67%
    10:00 +22°C° 0 mm 7 mps 756 mmHg 65%
    11:00 +23°C° 0 mm 6 mps 756 mmHg 63%
    12:00 +23°C° 0 mm 6 mps 756 mmHg 61%
    13:00 +23°C° 0.2 mm 6 mps 756 mmHg 64%
    14:00 +22°C° 0.2 mm 6 mps 756 mmHg 67%
    15:00 +21°C° 0.2 mm 7 mps 757 mmHg 70%
    16:00 +20°C° 0.3 mm 7 mps 757 mmHg 70%
    17:00 +18°C° 0.3 mm 7 mps 758 mmHg 69%
    18:00 +17°C° 0.3 mm 8 mps 758 mmHg 68%
    19:00 +16°C° 0 mm 8 mps 759 mmHg 65%
    20:00 +13°C° 0 mm 8 mps 760 mmHg 63%
    21:00 +12°C° 0 mm 8 mps 760 mmHg 60%
    22:00 +11°C° 0 mm 8 mps 761 mmHg 58%
    23:00 +10°C° 0 mm 8 mps 761 mmHg 57%

    Day after tomorrow, 26 May, Saturday

    Time Temperature Precipitation Wind Pressure Humidity
    00:00 +9°C° 0 mm 8 mps 762 mmHg 55%
    01:00 +9°C° 0 mm 8 mps 762 mmHg 55%
    02:00 +8°C° 0 mm 7 mps 763 mmHg 54%
    03:00 +6°C° 0 mm 7 mps 763 mmHg 53%
    04:00 +7°C° 0 mm 8 mps 764 mmHg 54%
    05:00 +7°C° 0 mm 8 mps 765 mmHg 55%
    06:00 +7°C° 0 mm 8 mps 765 mmHg 55%
    07:00 +8°C° 0 mm 9 mps 766 mmHg 52%
    08:00 +11°C° 0 mm 9 mps 766 mmHg 48%
    09:00 +12°C° 0 mm 9 mps 767 mmHg 45%
    10:00 +12°C° 0 mm 9 mps 767 mmHg 43%
    11:00 +13°C° 0 mm 9 mps 767 mmHg 40%
    12:00 +15°C° 0 mm 9 mps 768 mmHg 38%
    13:00 +15°C° 0 mm 9 mps 768 mmHg 39%
    14:00 +15°C° 0 mm 8 mps 768 mmHg 39%
    15:00 +15°C° 0 mm 8 mps 768 mmHg 39%
    16:00 +15°C° 0 mm 7 mps 768 mmHg 42%
    17:00 +14°C° 0 mm 6 mps 768 mmHg 45%
    18:00 +14°C° 0 mm 6 mps 769 mmHg 48%
    19:00 +13°C° 0 mm 5 mps 769 mmHg 52%
    20:00 +11°C° 0 mm 4 mps 770 mmHg 56%
    21:00 +10°C° 0 mm 3 mps 770 mmHg 60%
    22:00 +9°C° 0 mm 3 mps 770 mmHg 62%
    23:00 +9°C° 0 mm 2 mps 771 mmHg 63%

    27 May, Sunday

    Time Temperature Precipitation Wind Pressure Humidity
    00:00 +8°C° 0 mm 2 mps 771 mmHg 64%
    01:00 +8°C° 0 mm 2 mps 771 mmHg 64%
    02:00 +8°C° 0 mm 2 mps 771 mmHg 65%
    03:00 +8°C° 0 mm 1 mps 771 mmHg 65%
    04:00 +9°C° 0 mm 2 mps 771 mmHg 63%
    05:00 +10°C° 0 mm 2 mps 772 mmHg 61%
    06:00 +12°C° 0 mm 2 mps 772 mmHg 59%
    07:00 +14°C° 0 mm 2 mps 772 mmHg 54%
    08:00 +15°C° 0 mm 2 mps 771 mmHg 49%
    09:00 +17°C° 0 mm 3 mps 771 mmHg 43%
    10:00 +18°C° 0 mm 3 mps 771 mmHg 42%
    11:00 +19°C° 0 mm 3 mps 770 mmHg 41%
    12:00 +20°C° 0 mm 3 mps 770 mmHg 39%
    13:00 +21°C° 0 mm 3 mps 769 mmHg 39%
    14:00 +21°C° 0 mm 4 mps 769 mmHg 39%
    15:00 +21°C° 0 mm 4 mps 768 mmHg 39%
    16:00 +21°C° 0 mm 4 mps 768 mmHg 43%
    17:00 +20°C° 0 mm 3 mps 768 mmHg 46%
    18:00 +20°C° 0 mm 3 mps 767 mmHg 50%
    19:00 +18°C° 0 mm 3 mps 767 mmHg 53%
    20:00 +17°C° 0 mm 3 mps 767 mmHg 56%
    21:00 +14°C° 0 mm 3 mps 766 mmHg 58%
    22:00 +13°C° 0 mm 4 mps 766 mmHg 59%
    23:00 +13°C° 0 mm 4 mps 766 mmHg 59%

    28 May, Monday

    Time Temperature Precipitation Wind Pressure Humidity
    00:00 +12°C° 0 mm 4 mps 765 mmHg 60%
    01:00 +12°C° 0 mm 4 mps 765 mmHg 61%
    02:00 +12°C° 0 mm 4 mps 765 mmHg 62%
    03:00 +11°C° 0 mm 4 mps 764 mmHg 63%
    04:00 +12°C° 0 mm 5 mps 764 mmHg 64%
    05:00 +13°C° 0 mm 5 mps 764 mmHg 65%
    06:00 +13°C° 0 mm 6 mps 764 mmHg 66%
    07:00 +15°C° 0 mm 6 mps 763 mmHg 65%
    08:00 +16°C° 0 mm 6 mps 763 mmHg 64%
    09:00 +17°C° 0 mm 5 mps 763 mmHg 64%
    10:00 +17°C° 0 mm 5 mps 763 mmHg 63%
    11:00 +17°C° 0 mm 5 mps 763 mmHg 62%
    12:00 +17°C° 0 mm 5 mps 763 mmHg 62%
    13:00 +17°C° 0 mm 5 mps 763 mmHg 55%
    14:00 +19°C° 0 mm 6 mps 763 mmHg 48%
    15:00 +20°C° 0 mm 6 mps 763 mmHg 41%
    16:00 +19°C° 0 mm 6 mps 763 mmHg 44%
    17:00 +17°C° 0 mm 6 mps 764 mmHg 47%
    18:00 +16°C° 0 mm 5 mps 764 mmHg 50%
    19:00 +14°C° 0 mm 5 mps 764 mmHg 52%
    20:00 +13°C° 0 mm 5 mps 765 mmHg 53%
    21:00 +10°C° 0 mm 5 mps 766 mmHg 55%
    22:00 +10°C° 0 mm 4 mps 766 mmHg 56%
    23:00 +8°C° 0 mm 4 mps 766 mmHg 57%

    29 May, Tuesday

    Time Temperature Precipitation Wind Pressure Humidity
    00:00 +8°C° 0 mm 3 mps 767 mmHg 58%
    01:00 +8°C° 0 mm 3 mps 767 mmHg 60%
    02:00 +7°C° 0 mm 3 mps 767 mmHg 62%
    03:00 +7°C° 0 mm 3 mps 767 mmHg 63%
    04:00 +8°C° 0 mm 3 mps 767 mmHg 62%
    05:00 +8°C° 0 mm 4 mps 767 mmHg 60%
    06:00 +9°C° 0 mm 5 mps 767 mmHg 59%
    07:00 +12°C° 0 mm 5 mps 766 mmHg 53%
    08:00 +14°C° 0 mm 6 mps 766 mmHg 48%
    09:00 +16°C° 0 mm 6 mps 766 mmHg 42%
    10:00 +16°C° 0 mm 7 mps 765 mmHg 43%
    11:00 +16°C° 0 mm 7 mps 765 mmHg 45%
    12:00 +17°C° 0 mm 7 mps 764 mmHg 46%
    13:00 +17°C° 0 mm 8 mps 764 mmHg 46%
    14:00 +18°C° 0 mm 8 mps 763 mmHg 47%
    15:00 +20°C° 0 mm 8 mps 763 mmHg 47%
    16:00 +20°C° 0 mm 7 mps 763 mmHg 51%
    17:00 +20°C° 0 mm 5 mps 762 mmHg 55%
    18:00 +19°C° 0 mm 4 mps 762 mmHg 59%
    19:00 +18°C° 0 mm 4 mps 762 mmHg 65%
    20:00 +16°C° 0 mm 3 mps 762 mmHg 70%
    21:00 +14°C° 0 mm 3 mps 762 mmHg 75%
    22:00 +14°C° 0 mm 3 mps 761 mmHg 77%
    23:00 +13°C° 0 mm 4 mps 761 mmHg 79%
    Show more